OBJECT C, 60237

Orbit data source: Space-Track

You're viewing an Uncataloged Satellite

Recently launched and/or uncataloged satellites may have evolving metadata. Metadata may include but not limited to: Owner, Maufacturer, Bus, Motor, and Mission.

OBJECT C, 60237 is a satellite in LEO that was launched on Tue, 09 Jul 2024 UTC via an ARIANE 62 launch vehicle from the French Guiana (FRGUI). Unknown objects in Earth's orbit typically refer to objects detected orbiting the Earth but have not yet been identified or cataloged. These objects could be anything from previously untracked satellites, spent rocket stages, debris from satellite collisions, or even natural meteoroids temporarily captured by Earth's gravity.

Loading next visibility...
Identifier
60237, 2024-128C
Orbit
LEO
Last TLE update
9 hours ago
Origin
Flag of TBDTechnical University of Kosice (TBD)
Manufacturer
TUKE/KONK
Mission
Operational Amateur Astronomy
Bus & Motor
CUBESAT 2U, Unknown motor
Mass
2 kg wet, 2 kg dry
Launch date (UTC)
2024-07-09 (1 year ago)
Launch vehicle
ARIANE 62
Launch site
French Guiana (FRGUI)
Object type
Unknown
Shape & HBR
Box, 0.2 m
Radar Cross Section
0.025 m², Small (<0.1 m²)

Expand to show TLE details & history

TLE from 9 hours ago
0 OBJECT C
1 60237U 24128C   25182.82768109  .00003441  00000-0  26373-3 0  9990
2 60237  61.9924   1.9770 0053559  62.4832 298.1687 15.02795540 53543
Epoch: 2025-07-01T19:51Z
TLE epoch observation values (Epoch: 2025-07-01T19:51:51.646Z)
Latitude
-0.00006°
Longitude
143.89423°
Altitude
542.668 km
Speed
7.601 km/s
True Right ascension
00h 07m 54s
True Declination
0° 00' 00"
Sunlit
Object was in daylight at epoch
Visualization orbit readout
Latitude
34.85275°
Longitude
-58.96961°
Altitude
553.264 km
Speed
7.594 km/s
Apparent Right ascension
07h 42m 10s
Apparent Declination
-1° 03' 25"
Sunlit
Object is in daylight
Visualization observer readout
Local Sidereal Time
16:09:12
Azimuth
294.783° NW
Elevation
-28.086°
Doppler factor
1
Orbital elements
Apogee altitude
594.356 km
Perigee altitude
520.066 km
Semi-major axis
6,935.348 km
Eccentricity
0.00536
Inclination
61.9924°
RAAN
1.977°
Arg. of periapsis
62.4832°
True anomaly
Unknown
Mean anomaly
298.1687°
Eccentric anomaly
Unknown
Mean motion
3.75786 °/min
Orbital period
95.8 mins
BSTAR
0.00026373
Loading maneuver chart data...
Loading SW <> Apogee altitude chart data...
Loading historical data...
Loading historical data...
Loading historical data...
Loading historical data...
Loading historical data...
Loading historical data...
Loading historical data...

OBJECT C Visibility forecast

Observer location: undefined°, undefined°

Span
Click to sort rows by Start time (UTC) header in descending order
Start Az.
Max El. time (UTC)
Max El. Az.
Max El.
End time (UTC)
End Az.
7 mins2025-07-02 13:33:48.267Z196.808° SSW2025-07-02 13:37:48.267Z101.93° ESE36.823°2025-07-02 13:40:48.267Z47.892° ENE
6 mins2025-07-02 21:56:48.267Z340.738° N2025-07-02 21:59:48.267Z76.462° E36.813°2025-07-02 22:02:48.267Z125.979° SE
|